Change the Weather History Date:

Thursday, April 18, 2013

  Actual Average Record
Temperature  
Mean Temperature 42 °F -  
Max Temperature 46 °F 49 °F 61 °F (1951)
Min Temperature 39 °F 35 °F 28 °F (1997)
Degree Days  
Heating Degree Days 22    
Moisture  
Dew Point 43 °F    
Average Humidity 99    
Maximum Humidity 100    
Minimum Humidity 93    
Precipitation  
Precipitation 0.73 in - - ()
Sea Level Pressure  
Sea Level Pressure 30.02 in    
Wind  
Wind Speed 9 mph (SE)    
Max Wind Speed 16 mph    
Max Gust Speed 22 mph    
Visibility 5 miles    
Events Rain    
Averages and records for this station are not official NWS values.
T = Trace of Precipitation, MM = Missing Value Source: NWS Daily Summary

Daily Weather History Graph

Daily Weather History Graph

Search for Another Location

Airport or City:

Trip Planner

Search our weather history database for the weather conditions in past years. The results will help you decide how hot, cold, wet, or windy it might be!

Date:

Astronomy

Apr. 18, 2013 Rise Set
Actual Time 5:34 AM AKDT 7:58 PM AKDT
Civil Twilight 4:54 AM AKDT 8:39 PM AKDT
Nautical Twilight 4:02 AM AKDT 9:31 PM AKDT
Astronomical Twilight 3:00 AM AKDT 10:35 PM AKDT
Moon 11:43 AM AKDT (4/18) 2:29 AM AKDT (4/18)
Length of Visible Light 15h 44m
Length of Day
14h 24m
First Quarter, 53% of the Moon is Illuminated
Apr 18
First Quarter
Apr 25
Full
May 2
Last Quarter
May 9
New
May 17
First Quarter

Hourly Weather History & Observations

Time (AKDT) Temp. Windchill Dew Point Humidity Pressure Visibility Wind Dir Wind Speed Gust Speed Precip Events Conditions
12:18 AM 44.6 °F 39.7 °F 44.6 °F 100% 30.16 in 4.0 mi SE 9.2 mph - N/A   Overcast
12:28 AM 44.6 °F 40.2 °F 44.6 °F 100% 30.16 in 4.0 mi SE 8.1 mph - N/A   Overcast
12:36 AM 44.6 °F 40.2 °F 44.6 °F 100% 30.16 in 4.0 mi SE 8.1 mph - N/A   Overcast
12:53 AM 44.1 °F 39.0 °F 44.1 °F 100% 30.16 in 4.0 mi SE 9.2 mph - N/A   Overcast
1:00 AM 44.6 °F 40.2 °F 44.6 °F 100% 30.15 in 2.5 mi SE 8.1 mph - N/A   Overcast
1:53 AM 44.1 °F 38.6 °F 44.1 °F 100% 30.14 in 2.0 mi SE 10.4 mph - 0.01 in   Overcast
2:32 AM 44.6 °F 39.2 °F 44.6 °F 100% 30.14 in 1.8 mi SE 10.4 mph - 0.02 in Rain Light Rain
2:43 AM 44.6 °F 38.1 °F 44.6 °F 100% 30.14 in 2.5 mi SE 13.8 mph 20.7 mph 0.02 in Rain Light Rain
2:53 AM 44.1 °F 37.4 °F 44.1 °F 100% 30.14 in 2.5 mi SE 13.8 mph 21.9 mph 0.02 in   Overcast
3:26 AM 44.6 °F 40.2 °F 44.6 °F 100% 30.12 in 2.5 mi SE 8.1 mph - 0.01 in Rain Light Rain
3:39 AM 44.6 °F 40.2 °F 44.6 °F 100% 30.12 in 2.5 mi SSE 8.1 mph - 0.01 in   Overcast
3:53 AM 44.1 °F 40.8 °F 44.1 °F 100% 30.12 in 2.0 mi SSE 5.8 mph - 0.02 in   Overcast
4:53 AM 44.1 °F 41.5 °F 44.1 °F 100% 30.11 in 2.0 mi SSE 4.6 mph - 0.01 in Rain Light Rain
5:53 AM 43.0 °F 41.3 °F 43.0 °F 100% 30.09 in 2.5 mi South 3.5 mph - 0.03 in Rain Light Rain
5:57 AM 42.8 °F 41.1 °F 42.8 °F 100% 30.09 in 2.5 mi SE 3.5 mph - 0.00 in Rain Light Rain
6:53 AM 44.1 °F 42.5 °F 44.1 °F 100% 30.07 in 2.5 mi SSE 3.5 mph - 0.03 in   Overcast
7:53 AM 44.1 °F 38.1 °F 44.1 °F 100% 30.06 in 2.0 mi SE 11.5 mph - 0.02 in Rain Light Rain
8:53 AM 44.1 °F 37.1 °F 44.1 °F 100% 30.04 in 2.0 mi SE 15.0 mph - 0.02 in Rain Light Rain
9:46 AM 44.6 °F 38.8 °F 44.6 °F 100% 30.02 in 3.0 mi SE 11.5 mph - 0.03 in Rain Light Rain
9:53 AM 45.0 °F 38.5 °F 45.0 °F 100% 30.03 in 3.0 mi SE 13.8 mph - 0.03 in Rain Light Rain
10:53 AM 45.0 °F 39.7 °F 45.0 °F 100% 30.00 in 8.0 mi SE 10.4 mph - 0.06 in Rain Light Rain
11:53 AM 46.0 °F 41.0 °F 46.0 °F 100% 29.98 in 7.0 mi SE 10.4 mph - 0.05 in Rain Light Rain
12:53 PM 45.0 °F 39.7 °F 45.0 °F 100% 29.96 in 6.0 mi SE 10.4 mph - 0.06 in Rain Light Rain
1:53 PM 45.0 °F 39.3 °F 45.0 °F 100% 29.95 in 4.0 mi SE 11.5 mph - 0.07 in Rain Light Rain
2:53 PM 46.0 °F 40.6 °F 46.0 °F 100% 29.94 in 4.0 mi SE 11.5 mph - 0.05 in Rain Light Rain
3:53 PM 46.0 °F 40.2 °F 46.0 °F 100% 29.92 in 4.0 mi SE 12.7 mph - 0.06 in Rain Light Rain
4:53 PM 45.0 °F 40.6 °F 45.0 °F 100% 29.91 in 4.0 mi SE 8.1 mph - 0.07 in Rain Light Rain
5:53 PM 45.0 °F 40.6 °F 44.1 °F 97% 29.90 in 4.0 mi North 8.1 mph 16.1 mph 0.04 in Rain Light Rain
6:53 PM 44.1 °F 37.7 °F 44.1 °F 100% 29.89 in 10.0 mi NNW 12.7 mph - 0.04 in Rain Light Rain
6:57 PM 44.6 °F 39.2 °F 44.6 °F 100% 29.89 in 10.0 mi NW 10.4 mph - 0.00 in   Overcast
7:53 PM 43.0 °F 37.7 °F 42.1 °F 97% 29.90 in 10.0 mi NW 9.2 mph - 0.00 in   Overcast
8:53 PM 41.0 °F 35.2 °F 41.0 °F 100% 29.91 in 4.0 mi NW 9.2 mph - 0.01 in Rain Light Rain
9:13 PM 41.0 °F 35.2 °F 41.0 °F 100% 29.91 in 5.0 mi NW 9.2 mph - 0.00 in Rain Light Rain
9:49 PM 41.0 °F 34.7 °F 39.2 °F 93% 29.92 in 10.0 mi WNW 10.4 mph 16.1 mph 0.01 in Rain Light Rain
9:53 PM 41.0 °F 34.7 °F 39.0 °F 93% 29.93 in 10.0 mi WNW 10.4 mph - 0.01 in Rain Light Rain
10:35 PM 39.2 °F 30.5 °F 39.2 °F 100% 29.93 in 10.0 mi NW 16.1 mph 20.7 mph 0.02 in Rain Light Rain
10:53 PM 39.9 °F 33.4 °F 39.0 °F 97% 29.94 in 10.0 mi NW 10.4 mph - 0.02 in Rain Light Rain
11:00 PM 39.2 °F 32.0 °F 37.4 °F 93% 29.94 in 10.0 mi NNW 11.5 mph - 0.00 in Rain Light Rain
11:09 PM 39.2 °F 32.5 °F 37.4 °F 93% 29.94 in 10.0 mi NNW 10.4 mph - 0.00 in   Overcast
11:43 PM 39.2 °F 33.6 °F 39.2 °F 100% 29.94 in 10.0 mi NW 8.1 mph - 0.00 in   Overcast
11:53 PM 39.9 °F 34.5 °F 39.0 °F 97% 29.95 in 10.0 mi NW 8.1 mph - 0.00 in   Overcast